Voltar ao catálogo

ONEWEB-0700

AtivoComunicaçõesPO
NORAD 61606·PAYLOAD·🇬🇧 United Kingdom

Lançado Oct 20, 2024 de Vandenberg Space Force Base

Loading…

Próximas Passagens (próximas 24 horas)

TLE

AtualizadoSource: CelesTrak SupGP

Época: Sep 14, 2026, 10:03 UTC

1 61606C 24188N   26257.41891618 -.00002166  00000+0 -62120-2 0  2578
2 61606  87.8926  18.4223 0001352  85.7403 351.6886 13.10377814    12

Acompanhe ONEWEB-0700 em tempo real com AllMySat

Download on the App Store